Flag for Canada Weather past 2 weeks in Resolute Bay, Nunavut, Canada

-13 °F

Snow flurries. Broken clouds.

Feels Like: -34 °F
Forecast: N/A
Wind: 13 mph from Northwest

Location: Resolute

Current Time: Nov 28, 2015 at 3:02:07 PM

Latest Report: Nov 28, 2015 at 2:00 PM

Visibility: 10 mi

Pressure: 29.76 "Hg

Humidity: 76%

Dew point: -18 °F

Location of Resolute BayLocation

Historic Weather in Resolute Bay — Graph


Resolute Bay temperature yesterday

Maximum temperature yesterday: -8 °F (at 2:00 PM)
Minimum temperature yesterday: -18 °F (at 12:00 AM)
Average temperature yesterday: -11 °F

Past Weeks' High & Low Weather Summary

High19 °F (Nov 14, 10:00 PM)93% (Nov 14, 6:00 PM)30.30 "Hg (Nov 14, 6:00 PM)
Low-27 °F (Nov 25, 5:00 AM)51% (Nov 17, 7:00 AM)28.98 "Hg (Nov 19, 2:53 AM)
Average-3 °F81%29.75 "Hg
* Reported Nov 13 2:00 PM — Nov 28 2:00 PM, Resolute Bay, Weather by CustomWeather, © 2015

Note: Actual official high and low records may vary slightly from our data, if they occured in-between our weather recording intervals... More about our weather records


Resolute Bay weather history for previous 24 hours

Time TempWeatherWind HumidityBarometerVisibility
2:00 PM
Sat, Nov 28
-13 °FSnow flurries. Broken clouds.13 mph76%29.76 "Hg10 mi
1:00 PM-15 °FSnow flurries. Broken clouds.8 mph76%29.76 "Hg12 mi
12:00 PM-15 °FSnow flurries. Broken clouds.10 mph76%29.77 "Hg15 mi
11:00 AM-13 °FLight snow. Partly sunny.6 mph76%29.78 "Hg15 mi
10:00 AM-9 °FLight snow. Partly sunny.7 mph77%29.78 "Hg6 mi
9:00 AM-9 °FLight snow. More clouds than sun.8 mph77%29.78 "Hg15 mi
8:00 AM-9 °FLight snow. Overcast.7 mph77%29.78 "Hg15 mi
7:00 AM-11 °FLight snow. More clouds than sun.7 mph76%29.79 "Hg15 mi
6:00 AM-11 °FLight snow. Overcast.6 mph76%29.80 "Hg15 mi
5:00 AM-15 °FSnow flurries. Passing clouds.5 mph83%29.80 "Hg15 mi
4:00 AM-11 °FSnow flurries. Passing clouds.9 mph76%29.81 "Hg15 mi
3:00 AM-11 °FLight snow. Passing clouds.7 mph76%29.81 "Hg15 mi
2:00 AM-11 °FLight snow. Passing clouds.6 mph84%29.81 "Hg15 mi
1:00 AM-9 °FLight snow. Overcast.6 mph84%29.82 "Hg7 mi
12:00 AM-9 °FLight snow. Overcast.7 mph77%29.83 "Hg15 mi
11:00 PM
Fri, Nov 27
-9 °FLight snow. Passing clouds.14 mph77%29.85 "Hg15 mi
10:00 PM-8 °FLight snow. Passing clouds.12 mph77%29.85 "Hg10 mi
9:55 PM-8 °FLight snow. Passing clouds.10 mph77%29.85 "Hg10 mi
9:00 PM-8 °FSnow flurries. Partly cloudy.9 mph77%29.88 "Hg10 mi
8:00 PM-9 °FSnow flurries. Passing clouds.9 mph84%29.90 "Hg15 mi
7:00 PM-11 °FSnow flurries. Passing clouds.9 mph84%29.93 "Hg8 mi
6:00 PM-9 °FSnow flurries. Scattered clouds.14 mph84%29.95 "Hg8 mi
5:00 PM-9 °FSnow flurries. Scattered clouds.15 mph84%29.97 "Hg15 mi
4:00 PM-9 °FSnow flurries. Broken clouds.5 mph77%29.98 "Hg8 mi
3:00 PM-8 °FSnow flurries. Broken clouds.6 mph77%30.00 "Hg12 mi
Weather by CustomWeather, © 2015

See weather overviewHow to use our weather pages